Tracking 32963 objects as of 21-Jan-2026
HD Live streaming from Space Station
objects crossing your sky now

STARLINK-31461

Track STARLINK-31461 now!
10-day predictions
STARLINK-31461 is classified as:


NORAD ID: 59370
Int'l Code: 2024-060Y
Perigee: 490.1 km
Apogee: 490.4 km
Inclination: 43.0 °
Period: 94.3 minutes
Semi major axis: 6861 km
RCS: Unknown
Launch date: March 31, 2024
Source: United States (US)
Launch site: AIR FORCE EASTERN TEST RANGE (AFETR)
Your satellite tracking list
Your tracking list is empty




NASA's NSSDC Master Catalog

Two Line Element Set (TLE):
1 59370U 24060Y   26021.38625997 -.00003065  00000-0 -10200-3 0  9998
2 59370  42.9962 156.1601 0000182 341.4576  18.6269 15.27562658102898
Source of the keplerian elements: AFSPC